Location: Unspecified
(29.9680°N, 0.0000°E)
Time: 03:53:23
(UTC+00:00)

Explorer 7 - Pass Details

Date: 27 June 2019
Orbit: 485 x 680 km, 50.3° (Epoch: 13 October)

Event Time Altitude Azimuth Distance (km) Brightness Sun altitude
Rises 14:07:26 0° 309° (NW) 2,972 10.8 61.5°
Reaches altitude 10° 14:09:47 10° 306° (NW) 2,079 10.2 61.0°
Maximum altitude 14:14:31 57° 228° (SW) 794 9.4 60.0°
Drops below altitude 10° 14:19:19 10° 150° (SSE) 2,107 9.8 59.0°
Sets 14:21:42 0° 146° (SE) 3,016 10.4 58.4°
